Location: Duac?
(36.9744°N, 30.6500°E)
Time: 13:54:20
(UTC+00:00)

SL-16 R/B - Pass Details

Date: 05 August 2024
Orbit: 842 x 845 km, 71.0° (Epoch: 11 September)

Event Time Altitude Azimuth Distance (km) Brightness Sun altitude
Exits shadow 22:30:11 31° 42° (NE) 1,438 3.7 -36.0°
Drops below altitude 10° 22:33:09 10° 30° (NNE) 2,468 5.3 -35.9°
Sets 22:35:38 0° 27° (NNE) 3,407 6.3 -35.9°
